SCP
0 0 0 0 0 0 0 0 0 0 0 0 0 0 0 0 0 0 0 0 0 0
0 0 0 0 0 0 0 0 0 0 0 0 0 0 0 0 0 0 0 0 0 0
0 0 0 0 0 0 0 0 0 0 0 0 0 0 0 0 0 0 0 0 0 0
0 0 0 0 0 0 0 0 0 0 0 0 0 0 0 0 0 0 0 0 0 0
0 0 0 0 0 0 0 0 0 0 0 0 0 0 0 0 0 -0 -0 0 0 0
0 0 0 0 0 0 0 0 0 0 0 0 0 0 0 0 0 0 -0 -0 -0 0
0 0 0 0 0 0 0 0 0 0 0 0 0 0 0 0 0 0 -0 -0 0 0
0 0 0 0 0 0 -0 -0 0 0 0 0 0 0 -0 0 -0 0 -0 -0 0 0
0 0 0 0 0 0 0 0 0 0 0 0 0 -0 -0 0 -0 -0 -0 0 0 0
0 0 0 0 0 0 0 0 -0 0 -0 -0 0 -0 -0 -0 -0 -0 -0 0 0 0
0 0 0 0 0 0 -0 -0 0 -0 -0 0 0 -0 -0 -0 -0 0 0 0 0 0
0 0 0 0 0 0 0 0 0 0 -0 0 0 -0 -0 0 0 0 0 0 -0 -0
0 -0 -0 0 0 0 0 0 0 -0 -0 -0 0 0 0 0 0 0 0 0 0 -0
-0 -0 0 0 0 0 -0 0 0 0 0 0 0 0 -0 -0 0 0 0 0 0 -0
Wind_Speed_500mb
94 89 83 73 80 75 73 67 68 65 66 67 66 65 60 59 57 61 57 58 57 55
82 79 75 70 66 64 64 64 64 65 64 63 62 60 57 56 52 53 62 56 51 52
73 66 62 60 60 61 61 63 65 65 63 63 59 56 53 54 50 49 54 49 45 47
59 59 59 58 58 60 62 63 64 64 63 62 58 53 49 49 49 50 48 44 43 44
55 56 59 60 60 60 61 60 61 60 59 56 52 49 49 47 45 44 42 42 42 41
55 58 61 61 60 58 58 58 57 56 54 50 45 42 40 40 42 41 40 40 38 36
55 56 57 57 56 56 54 54 53 52 48 45 43 42 38 30 26 28 31 33 33 33
50 50 52 53 54 53 50 50 49 50 46 45 43 47 34 23 16 15 15 16 19 24
47 49 51 51 53 52 50 49 49 48 46 46 42 39 29 11 9 6 6 7 13 18
45 47 49 52 51 50 50 50 51 49 48 47 42 34 28 20 15 9 2 5 7 7
44 47 48 51 53 52 53 54 58 54 54 52 48 32 29 24 17 14 14 14 10 9
48 48 49 49 51 52 53 59 61 62 63 65 60 47 40 40 40 43 46 45 43 41
51 47 47 53 54 54 53 55 62 66 67 69 66 60 50 46 52 55 58 53 56 53
51 42 49 61 63 59 67 57 53 61 67 71 71 65 58 55 59 64 65 64 63 56
Wind_Direction_500mb
316 315 313 311 313 314 312 310 312 308 306 301 296 293 288 290 280 264 264 265 261 254
320 321 321 320 319 319 321 321 319 314 310 307 302 295 287 284 279 266 266 267 262 249
331 333 331 329 329 327 323 323 322 320 315 309 305 299 290 280 274 267 266 267 259 250
340 340 338 333 330 326 325 328 324 321 316 311 307 301 293 283 273 264 260 261 258 259
343 341 340 336 335 333 328 326 325 322 321 318 310 303 293 284 272 261 255 252 253 254
347 345 342 341 339 336 334 331 330 328 325 321 316 307 300 288 278 263 254 247 244 250
347 346 344 344 345 344 342 339 339 338 334 330 324 313 297 286 289 264 251 248 244 246
350 350 352 353 354 350 353 351 349 350 350 352 354 350 314 274 285 273 240 236 240 248
356 358 1 1 2 2 2 3 4 4 4 11 15 12 24 56 61 122 178 226 255 253
7 10 13 13 13 12 14 16 20 18 20 25 24 22 37 46 78 86 95 294 278 245
23 24 25 25 26 26 28 32 35 33 38 38 33 28 48 61 68 64 57 52 61 110
29 28 26 27 28 30 36 40 43 42 46 49 47 47 60 75 83 84 82 82 82 91
35 27 32 35 36 40 43 44 45 49 53 54 53 51 58 73 83 84 85 84 83 78
22 27 42 45 42 42 43 42 46 50 51 52 53 55 58 65 74 82 83 83 83 83
Wind_Speed_850mb
94 89 83 73 80 75 73 67 68 65 66 67 66 65 60 59 57 61 57 58 57 55
82 79 75 70 66 64 64 64 64 65 64 63 62 60 57 56 52 53 62 56 51 52
73 66 62 60 60 61 61 63 65 65 63 63 59 56 53 54 50 49 54 49 45 47
59 59 59 58 58 60 62 63 64 64 63 62 58 53 49 49 49 50 48 44 43 44
55 56 59 60 60 60 61 60 61 60 59 56 52 49 49 47 45 44 42 42 42 41
55 58 61 61 60 58 58 58 57 56 54 50 45 42 40 40 42 41 40 40 38 36
55 56 57 57 56 56 54 54 53 52 48 45 43 42 38 30 26 28 31 33 33 33
50 50 52 53 54 53 50 50 49 50 46 45 43 47 34 23 16 15 15 16 19 24
47 49 51 51 53 52 50 49 49 48 46 46 42 39 29 11 9 6 6 7 13 18
45 47 49 52 51 50 50 50 51 49 48 47 42 34 28 20 15 9 2 5 7 7
44 47 48 51 53 52 53 54 58 54 54 52 48 32 29 24 17 14 14 14 10 9
48 48 49 49 51 52 53 59 61 62 63 65 60 47 40 40 40 43 46 45 43 41
51 47 47 53 54 54 53 55 62 66 67 69 66 60 50 46 52 55 58 53 56 53
51 42 49 61 63 59 67 57 53 61 67 71 71 65 58 55 59 64 65 64 63 56
Wind_Direction_850mb
316 315 313 311 313 314 312 310 312 308 306 301 296 293 288 290 280 264 264 265 261 254
320 321 321 320 319 319 321 321 319 314 310 307 302 295 287 284 279 266 266 267 262 249
331 333 331 329 329 327 323 323 322 320 315 309 305 299 290 280 274 267 266 267 259 250
340 340 338 333 330 326 325 328 324 321 316 311 307 301 293 283 273 264 260 261 258 259
343 341 340 336 335 333 328 326 325 322 321 318 310 303 293 284 272 261 255 252 253 254
347 345 342 341 339 336 334 331 330 328 325 321 316 307 300 288 278 263 254 247 244 250
347 346 344 344 345 344 342 339 339 338 334 330 324 313 297 286 289 264 251 248 244 246
350 350 352 353 354 350 353 351 349 350 350 352 354 350 314 274 285 273 240 236 240 248
356 358 1 1 2 2 2 3 4 4 4 11 15 12 24 56 61 122 178 226 255 253
7 10 13 13 13 12 14 16 20 18 20 25 24 22 37 46 78 86 95 294 278 245
23 24 25 25 26 26 28 32 35 33 38 38 33 28 48 61 68 64 57 52 61 110
29 28 26 27 28 30 36 40 43 42 46 49 47 47 60 75 83 84 82 82 82 91
35 27 32 35 36 40 43 44 45 49 53 54 53 51 58 73 83 84 85 84 83 78
22 27 42 45 42 42 43 42 46 50 51 52 53 55 58 65 74 82 83 83 83 83